Location: Veytaux
(46.4185°N, 6.9320°E)
Time: 03:42:00
(UTC+00:00)

DEBRIS - Pass Details

Date: 01 October 2022
Orbit: 310 x 15046 km, 49.5° (Epoch: 28 November)

Event Time Altitude Azimuth Distance (km) Brightness Sun altitude
Rises 04:40:20 0° 199° (SSW) 11,522 9.3 -9.5°
Reaches altitude 10° 04:47:35 10° 196° (SSW) 11,854 9.3 -8.2°
Maximum altitude 06:39:26 76° 125° (SE) 14,822 10.4 10.8°
Drops below altitude 10° 07:58:47 10° 66° (ENE) 9,737 9.7 23.2°
Sets 08:03:47 0° 66° (ENE) 9,685 9.6 23.9°
